Time,TemperatureF,DewpointF,PressureIn,WindDirection,WindDirectionDegrees,WindSpeedMPH,WindSpeedGustMPH,Humidity,HourlyPrecipIn,Conditions,Clouds,dailyrainin,SoftwareType,DateUTC
2013-02-15 00:00:00,37.6,34.1,30.27,NW,315,0.0,0.0,87,0.00,,,0.00,VWS V14.01,2013-02-15 08:00:00,
2013-02-15 00:05:00,37.6,34.1,30.27,SW,225,0.0,0.0,87,0.00,,,0.00,VWS V14.01,2013-02-15 08:05:00,
2013-02-15 00:10:00,37.4,33.9,30.27,South,180,0.0,0.0,87,0.00,,,0.00,VWS V14.01,2013-02-15 08:10:00,
2013-02-15 00:15:00,37.4,33.9,30.27,South,180,0.0,0.0,87,0.00,,,0.00,VWS V14.01,2013-02-15 08:15:00,
2013-02-15 00:20:00,37.2,34.0,30.27,South,180,0.0,0.0,88,0.00,,,0.00,VWS V14.01,2013-02-15 08:20:00,
2013-02-15 00:25:00,37.0,33.8,30.27,South,180,0.0,0.0,88,0.00,,,0.00,VWS V14.01,2013-02-15 08:25:00,
2013-02-15 00:30:00,37.0,33.8,30.27,South,180,0.0,0.0,88,0.00,,,0.00,VWS V14.01,2013-02-15 08:30:00,
2013-02-15 00:35:00,37.0,33.8,30.27,North,0,0.0,0.0,88,0.00,,,0.00,VWS V14.01,2013-02-15 08:35:00,
2013-02-15 00:40:00,37.0,33.8,30.27,North,0,0.0,0.0,88,0.00,,,0.00,VWS V14.01,2013-02-15 08:40:00,
2013-02-15 00:45:00,36.9,33.7,30.27,North,0,0.0,0.0,88,0.00,,,0.00,VWS V14.01,2013-02-15 08:45:00,
2013-02-15 00:50:00,36.7,33.5,30.27,SW,225,0.0,0.0,88,0.00,,,0.00,VWS V14.01,2013-02-15 08:50:00,
2013-02-15 00:55:00,36.7,33.5,30.27,SW,225,0.0,0.0,88,0.00,,,0.00,VWS V14.01,2013-02-15 08:55:00,
2013-02-15 01:00:00,36.5,33.3,30.27,SW,225,0.0,0.0,88,0.00,,,0.00,VWS V14.01,2013-02-15 09:00:00,
2013-02-15 01:05:00,36.3,33.4,30.27,SW,225,0.0,0.0,89,0.00,,,0.00,VWS V14.01,2013-02-15 09:05:00,
2013-02-15 01:10:00,36.5,33.6,30.27,SW,225,0.0,0.0,89,0.00,,,0.00,VWS V14.01,2013-02-15 09:10:00,
2013-02-15 01:15:00,36.3,33.4,30.27,NW,315,0.0,0.0,89,0.00,,,0.00,VWS V14.01,2013-02-15 09:15:00,
2013-02-15 01:20:00,36.5,33.6,30.27,NW,315,0.0,0.0,89,0.00,,,0.00,VWS V14.01,2013-02-15 09:20:00,
2013-02-15 01:25:00,36.3,33.4,30.27,NW,315,0.0,0.0,89,0.00,,,0.00,VWS V14.01,2013-02-15 09:25:00,
2013-02-15 01:30:00,36.3,33.7,30.27,NW,315,0.0,0.0,90,0.00,,,0.00,VWS V14.01,2013-02-15 09:30:00,
2013-02-15 01:35:00,36.3,33.7,30.27,NW,315,0.0,0.0,90,0.00,,,0.00,VWS V14.01,2013-02-15 09:35:00,
2013-02-15 01:40:00,36.3,33.7,30.27,NW,315,0.0,0.0,90,0.00,,,0.00,VWS V14.01,2013-02-15 09:40:00,
2013-02-15 01:45:00,36.3,33.7,30.27,NW,315,0.0,0.0,90,0.00,,,0.00,VWS V14.01,2013-02-15 09:45:00,
2013-02-15 01:50:00,36.3,33.7,30.27,NW,315,0.0,0.0,90,0.00,,,0.00,VWS V14.01,2013-02-15 09:50:00,
2013-02-15 01:55:00,36.3,33.7,30.27,NW,315,0.0,0.0,90,0.00,,,0.00,VWS V14.01,2013-02-15 09:55:00,
2013-02-15 02:00:00,36.1,33.5,30.27,NW,315,0.0,0.0,90,0.00,,,0.00,VWS V14.01,2013-02-15 10:00:00,
2013-02-15 02:05:00,36.1,33.5,30.27,North,0,0.0,0.0,90,0.00,,,0.00,VWS V14.01,2013-02-15 10:05:00,
2013-02-15 02:10:00,36.0,33.3,30.27,North,0,0.0,0.0,90,0.00,,,0.00,VWS V14.01,2013-02-15 10:10:00,
2013-02-15 02:15:00,36.0,33.3,30.27,North,0,0.0,0.0,90,0.00,,,0.00,VWS V14.01,2013-02-15 10:15:00,
2013-02-15 02:20:00,36.0,33.3,30.27,North,0,0.0,0.0,90,0.00,,,0.00,VWS V14.01,2013-02-15 10:20:00,
2013-02-15 02:25:00,36.0,33.6,30.27,North,0,0.0,0.0,91,0.00,,,0.00,VWS V14.01,2013-02-15 10:25:00,
2013-02-15 02:30:00,36.0,33.6,30.27,North,0,0.0,0.0,91,0.00,,,0.00,VWS V14.01,2013-02-15 10:30:00,
2013-02-15 02:35:00,35.8,33.1,30.27,North,0,0.0,0.0,90,0.00,,,0.00,VWS V14.01,2013-02-15 10:35:00,
2013-02-15 02:40:00,35.8,33.1,30.27,North,0,0.0,0.0,90,0.00,,,0.00,VWS V14.01,2013-02-15 10:40:00,
2013-02-15 02:45:00,35.6,33.0,30.27,North,0,0.0,0.0,90,0.00,,,0.00,VWS V14.01,2013-02-15 10:45:00,
2013-02-15 02:50:00,35.6,33.0,30.27,North,0,0.0,0.0,90,0.00,,,0.00,VWS V14.01,2013-02-15 10:50:00,
2013-02-15 02:55:00,35.6,33.0,30.27,North,0,0.0,0.0,90,0.00,,,0.00,VWS V14.01,2013-02-15 10:55:00,
2013-02-15 03:00:00,35.4,33.1,30.30,North,0,0.0,0.0,91,0.00,,,0.00,VWS V14.01,2013-02-15 11:00:00,
2013-02-15 03:05:00,35.4,33.1,30.30,North,0,0.0,0.0,91,0.00,,,0.00,VWS V14.01,2013-02-15 11:05:00,
2013-02-15 03:10:00,35.4,33.1,30.30,North,0,0.0,0.0,91,0.00,,,0.00,VWS V14.01,2013-02-15 11:10:00,
2013-02-15 03:15:00,35.4,33.1,30.27,North,0,0.0,0.0,91,0.00,,,0.00,VWS V14.01,2013-02-15 11:15:00,
2013-02-15 03:20:00,35.4,33.1,30.27,North,0,0.0,0.0,91,0.00,,,0.00,VWS V14.01,2013-02-15 11:20:00,
2013-02-15 03:25:00,35.2,32.9,30.27,NW,315,0.0,0.0,91,0.00,,,0.00,VWS V14.01,2013-02-15 11:25:00,
2013-02-15 03:29:00,35.4,33.1,30.27,NW,315,0.0,0.0,91,0.00,,,0.00,VWS V14.01,2013-02-15 11:29:00,
2013-02-15 03:34:00,35.4,33.1,30.27,NW,315,0.0,0.0,91,0.00,,,0.00,VWS V14.01,2013-02-15 11:34:00,
2013-02-15 03:39:00,35.4,33.1,30.27,NW,315,0.0,0.0,91,0.00,,,0.00,VWS V14.01,2013-02-15 11:39:00,
2013-02-15 03:44:00,35.2,32.9,30.27,South,180,0.0,0.0,91,0.00,,,0.00,VWS V14.01,2013-02-15 11:44:00,
2013-02-15 03:49:00,35.2,32.9,30.27,SW,225,0.0,0.0,91,0.00,,,0.00,VWS V14.01,2013-02-15 11:49:00,
2013-02-15 03:54:00,35.1,32.7,30.27,SW,225,0.0,0.0,91,0.00,,,0.00,VWS V14.01,2013-02-15 11:54:00,
2013-02-15 03:59:00,35.1,32.7,30.27,SW,225,0.0,0.0,91,0.00,,,0.00,VWS V14.01,2013-02-15 11:59:00,
2013-02-15 04:04:00,35.1,32.7,30.27,NW,315,0.0,0.0,91,0.00,,,0.00,VWS V14.01,2013-02-15 12:04:00,
2013-02-15 04:09:00,35.1,32.7,30.27,NE,45,0.0,0.0,91,0.00,,,0.00,VWS V14.01,2013-02-15 12:09:00,
2013-02-15 04:14:00,35.1,32.7,30.27,NE,45,0.0,0.0,91,0.00,,,0.00,VWS V14.01,2013-02-15 12:14:00,
2013-02-15 04:19:00,35.1,32.7,30.27,NE,45,0.0,0.0,91,0.00,,,0.00,VWS V14.01,2013-02-15 12:19:00,
2013-02-15 04:24:00,34.9,32.5,30.27,NE,45,0.0,0.0,91,0.00,,,0.00,VWS V14.01,2013-02-15 12:24:00,
2013-02-15 04:29:00,34.9,32.2,30.24,NE,45,0.0,0.0,90,0.00,,,0.00,VWS V14.01,2013-02-15 12:29:00,
2013-02-15 04:34:00,34.7,32.1,30.24,NE,45,0.0,0.0,90,0.00,,,0.00,VWS V14.01,2013-02-15 12:34:00,
2013-02-15 04:39:00,34.7,32.1,30.24,NW,315,0.0,0.0,90,0.00,,,0.00,VWS V14.01,2013-02-15 12:39:00,
2013-02-15 04:44:00,34.7,32.1,30.27,NW,315,0.0,0.0,90,0.00,,,0.00,VWS V14.01,2013-02-15 12:44:00,
2013-02-15 04:49:00,34.5,31.9,30.27,NW,315,0.0,0.0,90,0.00,,,0.00,VWS V14.01,2013-02-15 12:49:00,
2013-02-15 04:54:00,34.5,31.9,30.27,NW,315,0.0,0.0,90,0.00,,,0.00,VWS V14.01,2013-02-15 12:54:00,
2013-02-15 04:59:00,34.5,31.9,30.27,NW,315,0.0,0.0,90,0.00,,,0.00,VWS V14.01,2013-02-15 12:59:00,
2013-02-15 05:04:00,34.3,31.7,30.27,NW,315,0.0,0.0,90,0.00,,,0.00,VWS V14.01,2013-02-15 13:04:00,
2013-02-15 05:09:00,34.3,31.7,30.27,NW,315,0.0,0.0,90,0.00,,,0.00,VWS V14.01,2013-02-15 13:09:00,
2013-02-15 05:14:00,34.3,31.7,30.27,NW,315,0.0,0.0,90,0.00,,,0.00,VWS V14.01,2013-02-15 13:14:00,
2013-02-15 05:19:00,34.2,31.5,30.27,NW,315,0.0,0.0,90,0.00,,,0.00,VWS V14.01,2013-02-15 13:19:00,
2013-02-15 05:24:00,34.2,31.5,30.27,NW,315,0.0,0.0,90,0.00,,,0.00,VWS V14.01,2013-02-15 13:24:00,
2013-02-15 05:29:00,34.0,31.4,30.27,NW,315,0.0,0.0,90,0.00,,,0.00,VWS V14.01,2013-02-15 13:29:00,
2013-02-15 05:34:00,34.0,31.4,30.27,NW,315,0.0,0.0,90,0.00,,,0.00,VWS V14.01,2013-02-15 13:34:00,
2013-02-15 05:39:00,34.0,31.4,30.27,North,0,0.0,0.0,90,0.00,,,0.00,VWS V14.01,2013-02-15 13:39:00,
2013-02-15 05:44:00,34.0,31.4,30.27,North,0,0.0,0.0,90,0.00,,,0.00,VWS V14.01,2013-02-15 13:44:00,
2013-02-15 05:49:00,34.0,31.4,30.27,North,0,0.0,0.0,90,0.00,,,0.00,VWS V14.01,2013-02-15 13:49:00,
2013-02-15 05:54:00,34.0,31.4,30.27,NW,315,0.0,0.0,90,0.00,,,0.00,VWS V14.01,2013-02-15 13:54:00,
2013-02-15 05:59:00,34.0,31.4,30.27,NE,45,0.0,0.0,90,0.00,,,0.00,VWS V14.01,2013-02-15 13:59:00,
2013-02-15 06:04:00,33.8,31.2,30.27,South,180,0.0,0.0,90,0.00,,,0.00,VWS V14.01,2013-02-15 14:04:00,
2013-02-15 06:09:00,33.8,31.2,30.27,NE,45,0.0,0.0,90,0.00,,,0.00,VWS V14.01,2013-02-15 14:09:00,
2013-02-15 06:14:00,33.8,30.9,30.27,NE,45,0.0,0.0,89,0.00,,,0.00,VWS V14.01,2013-02-15 14:14:00,
2013-02-15 06:19:00,33.6,31.0,30.27,NE,45,0.0,0.0,90,0.00,,,0.00,VWS V14.01,2013-02-15 14:19:00,
2013-02-15 06:24:00,33.8,30.9,30.27,South,180,0.0,0.0,89,0.00,,,0.00,VWS V14.01,2013-02-15 14:24:00,
2013-02-15 06:29:00,33.6,31.0,30.27,South,180,0.0,0.0,90,0.00,,,0.00,VWS V14.01,2013-02-15 14:29:00,
2013-02-15 06:34:00,33.6,31.0,30.27,South,180,0.0,0.0,90,0.00,,,0.00,VWS V14.01,2013-02-15 14:34:00,
2013-02-15 06:39:00,33.6,31.0,30.27,SE,135,0.0,0.0,90,0.00,,,0.00,VWS V14.01,2013-02-15 14:39:00,
2013-02-15 06:44:00,33.6,30.7,30.24,South,180,0.0,0.0,89,0.00,,,0.00,VWS V14.01,2013-02-15 14:44:00,
2013-02-15 06:49:00,33.6,30.7,30.24,NW,315,0.0,0.0,89,0.00,,,0.00,VWS V14.01,2013-02-15 14:49:00,
2013-02-15 06:54:00,33.6,30.7,30.24,North,0,0.0,0.0,89,0.00,,,0.00,VWS V14.01,2013-02-15 14:54:00,
2013-02-15 06:59:00,33.6,30.7,30.30,NE,45,0.0,0.0,89,0.00,,,0.00,VWS V14.01,2013-02-15 14:59:00,
2013-02-15 07:04:00,33.6,30.7,30.30,SW,225,0.0,0.0,89,0.00,,,0.00,VWS V14.01,2013-02-15 15:04:00,
2013-02-15 07:09:00,33.8,30.9,30.30,SE,135,0.0,0.0,89,0.00,,,0.00,VWS V14.01,2013-02-15 15:09:00,
2013-02-15 07:14:00,33.8,30.9,30.27,SW,225,0.0,0.0,89,0.00,,,0.00,VWS V14.01,2013-02-15 15:14:00,
2013-02-15 07:19:00,33.8,30.9,30.27,SW,225,0.0,0.0,89,0.00,,,0.00,VWS V14.01,2013-02-15 15:19:00,
2013-02-15 07:24:00,34.0,31.1,30.27,North,0,3.8,3.8,89,0.00,,,0.00,VWS V14.01,2013-02-15 15:24:00,
2013-02-15 07:29:00,34.0,31.1,30.27,SW,225,0.0,0.0,89,0.00,,,0.00,VWS V14.01,2013-02-15 15:29:00,
2013-02-15 07:34:00,34.2,31.3,30.27,SW,225,0.0,0.0,89,0.00,,,0.00,VWS V14.01,2013-02-15 15:34:00,
2013-02-15 07:39:00,34.3,31.4,30.27,SW,225,0.0,0.0,89,0.00,,,0.00,VWS V14.01,2013-02-15 15:39:00,
2013-02-15 07:44:00,34.5,31.6,30.27,NW,315,0.0,0.0,89,0.00,,,0.00,VWS V14.01,2013-02-15 15:44:00,
2013-02-15 07:49:00,34.9,32.0,30.27,NE,45,1.2,1.2,89,0.00,,,0.00,VWS V14.01,2013-02-15 15:49:00,
2013-02-15 07:54:00,35.2,32.3,30.27,NE,45,0.0,0.0,89,0.00,,,0.00,VWS V14.01,2013-02-15 15:54:00,
2013-02-15 07:59:00,35.8,32.9,30.27,SW,225,0.0,0.0,89,0.00,,,0.00,VWS V14.01,2013-02-15 15:59:00,
2013-02-15 08:04:00,36.3,33.7,30.27,NE,45,1.5,1.5,90,0.00,,,0.00,VWS V14.01,2013-02-15 16:04:00,
2013-02-15 08:09:00,36.7,34.0,30.27,North,0,0.0,0.0,90,0.00,,,0.00,VWS V14.01,2013-02-15 16:09:00,
2013-02-15 08:14:00,37.4,34.5,30.27,South,180,3.5,3.5,89,0.00,,,0.00,VWS V14.01,2013-02-15 16:14:00,
2013-02-15 08:19:00,37.9,35.0,30.27,SE,135,0.0,0.0,89,0.00,,,0.00,VWS V14.01,2013-02-15 16:19:00,
2013-02-15 08:24:00,38.7,35.7,30.27,NE,45,1.5,1.5,89,0.00,,,0.00,VWS V14.01,2013-02-15 16:24:00,
2013-02-15 08:29:00,39.7,36.5,30.30,SW,225,0.0,0.0,88,0.00,,,0.00,VWS V14.01,2013-02-15 16:29:00,
2013-02-15 08:34:00,40.8,37.3,30.30,NE,45,0.0,0.0,87,0.00,,,0.00,VWS V14.01,2013-02-15 16:34:00,
2013-02-15 08:39:00,42.3,37.5,30.30,South,180,0.0,0.0,83,0.00,,,0.00,VWS V14.01,2013-02-15 16:39:00,
2013-02-15 08:44:00,43.0,37.6,30.30,North,0,0.0,0.0,81,0.00,,,0.00,VWS V14.01,2013-02-15 16:44:00,
2013-02-15 08:49:00,43.9,37.8,30.30,NE,45,1.8,1.8,79,0.00,,,0.00,VWS V14.01,2013-02-15 16:49:00,
2013-02-15 08:54:00,44.8,38.0,30.30,North,0,0.0,0.0,77,0.00,,,0.00,VWS V14.01,2013-02-15 16:54:00,
2013-02-15 08:59:00,45.5,38.4,30.30,NW,315,0.0,0.0,76,0.00,,,0.00,VWS V14.01,2013-02-15 16:59:00,
2013-02-15 09:04:00,46.8,38.6,30.30,NW,315,0.0,0.0,73,0.00,,,0.00,VWS V14.01,2013-02-15 17:04:00,
2013-02-15 09:09:00,47.5,38.9,30.30,NE,45,0.0,0.0,72,0.00,,,0.00,VWS V14.01,2013-02-15 17:09:00,
2013-02-15 09:14:00,48.2,38.5,30.30,SE,135,0.0,0.0,69,0.00,,,0.00,VWS V14.01,2013-02-15 17:14:00,
2013-02-15 09:19:00,48.6,38.9,30.30,South,180,0.0,0.0,69,0.00,,,0.00,VWS V14.01,2013-02-15 17:19:00,
2013-02-15 09:24:00,49.1,38.6,30.30,SE,135,0.0,0.0,67,0.00,,,0.00,VWS V14.01,2013-02-15 17:24:00,
2013-02-15 09:29:00,49.6,38.8,30.33,SW,225,0.0,0.0,66,0.00,,,0.00,VWS V14.01,2013-02-15 17:29:00,
2013-02-15 09:34:00,50.2,38.9,30.33,SW,225,3.2,3.2,65,0.00,,,0.00,VWS V14.01,2013-02-15 17:34:00,
2013-02-15 09:39:00,50.7,39.4,30.33,SW,225,0.0,0.0,65,0.00,,,0.00,VWS V14.01,2013-02-15 17:39:00,
2013-02-15 09:44:00,51.3,39.9,30.30,SW,225,4.1,4.1,65,0.00,,,0.00,VWS V14.01,2013-02-15 17:44:00,
2013-02-15 09:49:00,52.2,41.2,30.30,SW,225,5.0,5.0,66,0.00,,,0.00,VWS V14.01,2013-02-15 17:49:00,
2013-02-15 09:54:00,52.9,42.2,30.30,SW,225,0.0,0.0,67,0.00,,,0.00,VWS V14.01,2013-02-15 17:54:00,
2013-02-15 09:59:00,53.4,42.8,30.33,SW,225,5.3,5.3,67,0.00,,,0.00,VWS V14.01,2013-02-15 17:59:00,
2013-02-15 10:04:00,54.1,43.4,30.33,NW,315,2.6,2.6,67,0.00,,,0.00,VWS V14.01,2013-02-15 18:04:00,
2013-02-15 10:09:00,54.9,44.1,30.33,SW,225,4.7,4.7,67,0.00,,,0.00,VWS V14.01,2013-02-15 18:09:00,
2013-02-15 10:14:00,55.4,43.8,30.30,SW,225,3.5,3.5,65,0.00,,,0.00,VWS V14.01,2013-02-15 18:14:00,
2013-02-15 10:19:00,56.1,44.1,30.30,SW,225,3.2,3.2,64,0.00,,,0.00,VWS V14.01,2013-02-15 18:19:00,
2013-02-15 10:24:00,56.5,44.0,30.30,SW,225,3.5,3.5,63,0.00,,,0.00,VWS V14.01,2013-02-15 18:24:00,
2013-02-15 10:29:00,56.7,43.4,30.33,SW,225,4.7,4.7,61,0.00,,,0.00,VWS V14.01,2013-02-15 18:29:00,
2013-02-15 10:34:00,56.8,43.1,30.33,SW,225,3.8,3.8,60,0.00,,,0.00,VWS V14.01,2013-02-15 18:34:00,
2013-02-15 10:39:00,57.4,43.2,30.33,SW,225,2.9,2.9,59,0.00,,,0.00,VWS V14.01,2013-02-15 18:39:00,
2013-02-15 10:44:00,58.5,44.6,30.33,SW,225,4.1,4.1,60,0.00,,,0.00,VWS V14.01,2013-02-15 18:44:00,
2013-02-15 10:49:00,59.7,45.4,30.33,SW,225,0.0,0.0,59,0.00,,,0.00,VWS V14.01,2013-02-15 18:49:00,
2013-02-15 10:54:00,60.6,45.3,30.33,SW,225,4.1,4.1,57,0.00,,,0.00,VWS V14.01,2013-02-15 18:54:00,
2013-02-15 10:59:00,61.7,45.4,30.33,NW,315,0.0,0.0,55,0.00,,,0.00,VWS V14.01,2013-02-15 18:59:00,
2013-02-15 11:04:00,62.6,45.2,30.33,SW,225,3.8,3.8,53,0.00,,,0.00,VWS V14.01,2013-02-15 19:04:00,
2013-02-15 11:09:00,63.5,45.1,30.33,NW,315,4.1,4.1,51,0.00,,,0.00,VWS V14.01,2013-02-15 19:09:00,
2013-02-15 11:14:00,64.0,45.0,30.33,SE,135,0.0,0.0,50,0.00,,,0.00,VWS V14.01,2013-02-15 19:14:00,
2013-02-15 11:19:00,64.4,44.3,30.33,SW,225,3.2,3.2,48,0.00,,,0.00,VWS V14.01,2013-02-15 19:19:00,
2013-02-15 11:24:00,64.6,43.9,30.33,SW,225,2.9,2.9,47,0.00,,,0.00,VWS V14.01,2013-02-15 19:24:00,
2013-02-15 11:29:00,63.9,42.7,30.33,SW,225,4.7,4.7,46,0.00,,,0.00,VWS V14.01,2013-02-15 19:29:00,
2013-02-15 11:34:00,63.5,42.4,30.33,South,180,1.2,1.2,46,0.00,,,0.00,VWS V14.01,2013-02-15 19:34:00,
2013-02-15 11:39:00,63.3,42.2,30.33,SW,225,5.0,5.0,46,0.00,,,0.00,VWS V14.01,2013-02-15 19:39:00,
2013-02-15 11:44:00,63.1,42.6,30.33,SW,225,2.0,2.0,47,0.00,,,0.00,VWS V14.01,2013-02-15 19:44:00,
2013-02-15 11:49:00,63.7,43.1,30.33,SW,225,6.1,6.1,47,0.00,,,0.00,VWS V14.01,2013-02-15 19:49:00,
2013-02-15 11:54:00,64.6,43.9,30.33,SW,225,0.0,0.0,47,0.00,,,0.00,VWS V14.01,2013-02-15 19:54:00,
2013-02-15 11:59:00,65.8,44.5,30.33,SW,225,3.2,3.2,46,0.00,,,0.00,VWS V14.01,2013-02-15 19:59:00,
2013-02-15 12:04:00,66.7,44.8,30.33,SW,225,2.6,2.6,45,0.00,,,0.00,VWS V14.01,2013-02-15 20:04:00,
2013-02-15 12:09:00,67.3,45.2,30.33,NW,315,1.8,1.8,45,0.00,,,0.00,VWS V14.01,2013-02-15 20:09:00,
2013-02-15 12:14:00,68.0,45.9,30.30,NW,315,5.0,5.0,45,0.00,,,0.00,VWS V14.01,2013-02-15 20:14:00,
2013-02-15 12:19:00,68.4,45.6,30.30,South,180,0.0,0.0,44,0.00,,,0.00,VWS V14.01,2013-02-15 20:19:00,
2013-02-15 12:24:00,68.7,45.3,30.30,SW,225,7.0,7.0,43,0.00,,,0.00,VWS V14.01,2013-02-15 20:24:00,
2013-02-15 12:29:00,69.3,45.2,30.30,SW,225,3.5,3.5,42,0.00,,,0.00,VWS V14.01,2013-02-15 20:29:00,
2013-02-15 12:34:00,69.8,45.7,30.30,SW,225,5.8,5.8,42,0.00,,,0.00,VWS V14.01,2013-02-15 20:34:00,
2013-02-15 12:39:00,70.5,46.3,30.30,SW,225,0.0,0.0,42,0.00,,,0.00,VWS V14.01,2013-02-15 20:39:00,
2013-02-15 12:44:00,71.2,47.0,30.30,NW,315,1.8,1.8,42,0.00,,,0.00,VWS V14.01,2013-02-15 20:44:00,
2013-02-15 12:49:00,71.4,46.5,30.27,NW,315,4.1,4.1,41,0.00,,,0.00,VWS V14.01,2013-02-15 20:49:00,
2013-02-15 12:54:00,71.2,45.7,30.27,SW,225,4.7,4.7,40,0.00,,,0.00,VWS V14.01,2013-02-15 20:54:00,
2013-02-15 12:59:00,71.2,45.0,30.27,SW,225,4.7,4.7,39,0.00,,,0.00,VWS V14.01,2013-02-15 20:59:00,
2013-02-15 13:04:00,71.1,44.9,30.27,SW,225,0.0,0.0,39,0.00,,,0.00,VWS V14.01,2013-02-15 21:04:00,
2013-02-15 13:09:00,70.7,43.9,30.27,North,0,1.5,1.5,38,0.00,,,0.00,VWS V14.01,2013-02-15 21:09:00,
2013-02-15 13:14:00,70.7,43.9,30.27,NW,315,1.2,1.2,38,0.00,,,0.00,VWS V14.01,2013-02-15 21:14:00,
2013-02-15 13:19:00,70.5,43.7,30.27,North,0,4.7,4.7,38,0.00,,,0.00,VWS V14.01,2013-02-15 21:19:00,
2013-02-15 13:24:00,70.3,42.9,30.27,SE,135,0.0,0.0,37,0.00,,,0.00,VWS V14.01,2013-02-15 21:24:00,
2013-02-15 13:29:00,70.0,42.5,30.27,NW,315,4.7,4.7,37,0.00,,,0.00,VWS V14.01,2013-02-15 21:29:00,
2013-02-15 13:34:00,70.2,42.7,30.27,SW,225,3.5,3.5,37,0.00,,,0.00,VWS V14.01,2013-02-15 21:34:00,
2013-02-15 13:39:00,70.0,42.5,30.27,NW,315,1.8,1.8,37,0.00,,,0.00,VWS V14.01,2013-02-15 21:39:00,
2013-02-15 13:44:00,70.2,42.7,30.27,NW,315,4.1,4.1,37,0.00,,,0.00,VWS V14.01,2013-02-15 21:44:00,
2013-02-15 13:49:00,70.2,42.7,30.27,South,180,3.8,3.8,37,0.00,,,0.00,VWS V14.01,2013-02-15 21:49:00,
2013-02-15 13:54:00,70.5,43.0,30.27,SW,225,8.2,8.2,37,0.00,,,0.00,VWS V14.01,2013-02-15 21:54:00,
2013-02-15 13:59:00,70.7,42.5,30.27,SW,225,0.0,0.0,36,0.00,,,0.00,VWS V14.01,2013-02-15 21:59:00,
2013-02-15 14:04:00,70.7,43.2,30.27,SW,225,5.0,5.0,37,0.00,,,0.00,VWS V14.01,2013-02-15 22:04:00,
2013-02-15 14:09:00,70.9,42.6,30.27,NW,315,3.8,3.8,36,0.00,,,0.00,VWS V14.01,2013-02-15 22:09:00,
2013-02-15 14:14:00,70.5,42.3,30.27,North,0,4.4,4.4,36,0.00,,,0.00,VWS V14.01,2013-02-15 22:14:00,
2013-02-15 14:19:00,70.5,42.3,30.27,North,0,0.0,0.0,36,0.00,,,0.00,VWS V14.01,2013-02-15 22:19:00,
2013-02-15 14:24:00,70.5,42.3,30.27,NE,45,1.8,1.8,36,0.00,,,0.00,VWS V14.01,2013-02-15 22:24:00,
2013-02-15 14:29:00,70.5,41.6,30.27,NW,315,1.5,1.5,35,0.00,,,0.00,VWS V14.01,2013-02-15 22:29:00,
2013-02-15 14:34:00,70.9,41.9,30.27,SW,225,4.7,4.7,35,0.00,,,0.00,VWS V14.01,2013-02-15 22:34:00,
2013-02-15 14:39:00,70.5,41.6,30.27,North,0,5.5,5.5,35,0.00,,,0.00,VWS V14.01,2013-02-15 22:39:00,
2013-02-15 14:44:00,71.1,42.0,30.27,North,0,5.5,5.5,35,0.00,,,0.00,VWS V14.01,2013-02-15 22:44:00,
2013-02-15 14:49:00,70.9,41.1,30.27,North,0,3.8,3.8,34,0.00,,,0.00,VWS V14.01,2013-02-15 22:49:00,
2013-02-15 14:54:00,70.7,41.7,30.27,North,0,0.0,0.0,35,0.00,,,0.00,VWS V14.01,2013-02-15 22:54:00,
2013-02-15 14:59:00,70.5,41.6,30.27,SW,225,5.0,5.0,35,0.00,,,0.00,VWS V14.01,2013-02-15 22:59:00,
2013-02-15 15:04:00,70.5,41.6,30.27,NW,315,3.2,3.2,35,0.00,,,0.00,VWS V14.01,2013-02-15 23:04:00,
2013-02-15 15:09:00,70.5,41.6,30.27,North,0,4.4,4.4,35,0.00,,,0.00,VWS V14.01,2013-02-15 23:09:00,
2013-02-15 15:14:00,70.2,41.3,30.27,NW,315,5.0,5.0,35,0.00,,,0.00,VWS V14.01,2013-02-15 23:14:00,
2013-02-15 15:19:00,69.8,40.2,30.24,North,0,2.6,2.6,34,0.00,,,0.00,VWS V14.01,2013-02-15 23:19:00,
2013-02-15 15:24:00,70.0,40.3,30.24,SW,225,5.5,5.5,34,0.00,,,0.00,VWS V14.01,2013-02-15 23:24:00,
2013-02-15 15:29:00,69.6,40.8,30.24,SW,225,0.0,0.0,35,0.00,,,0.00,VWS V14.01,2013-02-15 23:29:00,
2013-02-15 15:34:00,69.4,40.6,30.27,SW,225,1.2,1.2,35,0.00,,,0.00,VWS V14.01,2013-02-15 23:34:00,
2013-02-15 15:39:00,69.6,40.8,30.27,SW,225,0.0,0.0,35,0.00,,,0.00,VWS V14.01,2013-02-15 23:39:00,
2013-02-15 15:44:00,69.6,40.8,30.27,SW,225,3.2,3.2,35,0.00,,,0.00,VWS V14.01,2013-02-15 23:44:00,
2013-02-15 15:49:00,69.4,40.6,30.27,North,0,0.0,0.0,35,0.00,,,0.00,VWS V14.01,2013-02-15 23:49:00,
2013-02-15 15:54:00,68.9,40.2,30.27,SW,225,3.8,3.8,35,0.00,,,0.00,VWS V14.01,2013-02-15 23:54:00,
2013-02-15 15:59:00,68.9,40.2,30.27,NW,315,5.3,5.3,35,0.00,,,0.00,VWS V14.01,2013-02-15 23:59:00,
2013-02-15 16:04:00,68.5,39.8,30.27,NW,315,0.0,0.0,35,0.00,,,0.00,VWS V14.01,2013-02-16 00:04:00,
2013-02-15 16:09:00,68.4,39.7,30.27,SW,225,6.1,6.1,35,0.00,,,0.00,VWS V14.01,2013-02-16 00:09:00,
2013-02-15 16:14:00,68.0,39.3,30.27,NW,315,0.0,0.0,35,0.00,,,0.00,VWS V14.01,2013-02-16 00:14:00,
2013-02-15 16:19:00,67.8,39.9,30.27,SW,225,3.2,3.2,36,0.00,,,0.00,VWS V14.01,2013-02-16 00:19:00,
2013-02-15 16:24:00,67.3,39.4,30.27,NE,45,5.3,5.3,36,0.00,,,0.00,VWS V14.01,2013-02-16 00:24:00,
2013-02-15 16:29:00,66.9,39.1,30.27,North,0,3.5,3.5,36,0.00,,,0.00,VWS V14.01,2013-02-16 00:29:00,
2013-02-15 16:34:00,66.4,38.6,30.27,North,0,0.0,0.0,36,0.00,,,0.00,VWS V14.01,2013-02-16 00:34:00,
2013-02-15 16:39:00,65.7,38.7,30.27,North,0,4.4,4.4,37,0.00,,,0.00,VWS V14.01,2013-02-16 00:39:00,
2013-02-15 16:44:00,65.1,38.2,30.27,North,0,3.2,3.2,37,0.00,,,0.00,VWS V14.01,2013-02-16 00:44:00,
2013-02-15 16:49:00,64.4,37.6,30.27,North,0,5.5,5.5,37,0.00,,,0.00,VWS V14.01,2013-02-16 00:49:00,
2013-02-15 16:54:00,64.0,37.9,30.27,NW,315,2.0,2.0,38,0.00,,,0.00,VWS V14.01,2013-02-16 00:54:00,
2013-02-15 16:59:00,63.5,37.5,30.27,SW,225,0.0,0.0,38,0.00,,,0.00,VWS V14.01,2013-02-16 00:59:00,
2013-02-15 17:04:00,63.0,37.0,30.27,NW,315,4.4,4.4,38,0.00,,,0.00,VWS V14.01,2013-02-16 01:04:00,
2013-02-15 17:09:00,62.6,36.7,30.27,SW,225,3.5,3.5,38,0.00,,,0.00,VWS V14.01,2013-02-16 01:09:00,
2013-02-15 17:14:00,61.9,36.0,30.27,SW,225,1.5,1.5,38,0.00,,,0.00,VWS V14.01,2013-02-16 01:14:00,
2013-02-15 17:19:00,61.2,36.0,30.27,NW,315,0.0,0.0,39,0.00,,,0.00,VWS V14.01,2013-02-16 01:19:00,
2013-02-15 17:24:00,60.3,35.2,30.27,NW,315,0.0,0.0,39,0.00,,,0.00,VWS V14.01,2013-02-16 01:24:00,
2013-02-15 17:29:00,59.7,35.4,30.27,NW,315,0.0,0.0,40,0.00,,,0.00,VWS V14.01,2013-02-16 01:29:00,
2013-02-15 17:34:00,58.8,34.6,30.27,NW,315,0.0,0.0,40,0.00,,,0.00,VWS V14.01,2013-02-16 01:34:00,
2013-02-15 17:39:00,58.1,34.5,30.27,NW,315,0.0,0.0,41,0.00,,,0.00,VWS V14.01,2013-02-16 01:39:00,
2013-02-15 17:43:00,57.4,34.5,30.27,NW,315,0.0,0.0,42,0.00,,,0.00,VWS V14.01,2013-02-16 01:43:00,
2013-02-15 17:48:00,56.7,34.4,30.30,NW,315,0.0,0.0,43,0.00,,,0.00,VWS V14.01,2013-02-16 01:48:00,
2013-02-15 17:53:00,55.9,34.4,30.30,NW,315,0.0,0.0,44,0.00,,,0.00,VWS V14.01,2013-02-16 01:53:00,
2013-02-15 17:58:00,55.2,34.3,30.30,NW,315,0.0,0.0,45,0.00,,,0.00,VWS V14.01,2013-02-16 01:58:00,
2013-02-15 18:03:00,54.3,34.0,30.27,NW,315,0.0,0.0,46,0.00,,,0.00,VWS V14.01,2013-02-16 02:03:00,
2013-02-15 18:08:00,53.6,33.3,30.27,NW,315,0.0,0.0,46,0.00,,,0.00,VWS V14.01,2013-02-16 02:08:00,
2013-02-15 18:13:00,52.9,33.2,30.27,NW,315,0.0,0.0,47,0.00,,,0.00,VWS V14.01,2013-02-16 02:13:00,
2013-02-15 18:18:00,52.3,32.7,30.27,NW,315,0.0,0.0,47,0.00,,,0.00,VWS V14.01,2013-02-16 02:18:00,
2013-02-15 18:23:00,51.6,33.1,30.27,NW,315,0.0,0.0,49,0.00,,,0.00,VWS V14.01,2013-02-16 02:23:00,
2013-02-15 18:28:00,51.1,33.1,30.27,NW,315,0.0,0.0,50,0.00,,,0.00,VWS V14.01,2013-02-16 02:28:00,
2013-02-15 18:33:00,50.5,32.6,30.27,NW,315,0.0,0.0,50,0.00,,,0.00,VWS V14.01,2013-02-16 02:33:00,
2013-02-15 18:38:00,50.0,32.6,30.27,NW,315,0.0,0.0,51,0.00,,,0.00,VWS V14.01,2013-02-16 02:38:00,
2013-02-15 18:43:00,49.6,32.8,30.27,NW,315,0.0,0.0,52,0.00,,,0.00,VWS V14.01,2013-02-16 02:43:00,
2013-02-15 18:48:00,49.1,32.7,30.27,NW,315,0.0,0.0,53,0.00,,,0.00,VWS V14.01,2013-02-16 02:48:00,
2013-02-15 18:53:00,48.7,32.8,30.27,NW,315,0.0,0.0,54,0.00,,,0.00,VWS V14.01,2013-02-16 02:53:00,
2013-02-15 18:58:00,48.4,33.0,30.27,North,0,0.0,0.0,55,0.00,,,0.00,VWS V14.01,2013-02-16 02:58:00,
2013-02-15 19:03:00,47.8,32.9,30.27,North,0,0.0,0.0,56,0.00,,,0.00,VWS V14.01,2013-02-16 03:03:00,
2013-02-15 19:08:00,47.5,33.0,30.27,North,0,0.0,0.0,57,0.00,,,0.00,VWS V14.01,2013-02-16 03:08:00,
2013-02-15 19:13:00,47.1,33.1,30.27,North,0,0.0,0.0,58,0.00,,,0.00,VWS V14.01,2013-02-16 03:13:00,
2013-02-15 19:18:00,46.9,33.4,30.27,North,0,0.0,0.0,59,0.00,,,0.00,VWS V14.01,2013-02-16 03:18:00,
2013-02-15 19:23:00,46.6,33.0,30.27,NW,315,0.0,0.0,59,0.00,,,0.00,VWS V14.01,2013-02-16 03:23:00,
2013-02-15 19:28:00,46.2,33.5,30.27,NW,315,0.0,0.0,61,0.00,,,0.00,VWS V14.01,2013-02-16 03:28:00,
2013-02-15 19:33:00,45.7,33.0,30.27,NW,315,0.0,0.0,61,0.00,,,0.00,VWS V14.01,2013-02-16 03:33:00,
2013-02-15 19:38:00,45.5,33.2,30.27,NW,315,0.0,0.0,62,0.00,,,0.00,VWS V14.01,2013-02-16 03:38:00,
2013-02-15 19:43:00,45.1,32.9,30.27,NW,315,0.0,0.0,62,0.00,,,0.00,VWS V14.01,2013-02-16 03:43:00,
2013-02-15 19:48:00,44.8,33.0,30.27,NW,315,0.0,0.0,63,0.00,,,0.00,VWS V14.01,2013-02-16 03:48:00,
2013-02-15 19:53:00,44.4,33.4,30.27,NW,315,0.0,0.0,65,0.00,,,0.00,VWS V14.01,2013-02-16 03:53:00,
2013-02-15 19:58:00,44.2,33.2,30.27,NW,315,0.0,0.0,65,0.00,,,0.00,VWS V14.01,2013-02-16 03:58:00,
2013-02-15 20:03:00,43.9,33.3,30.24,NW,315,0.0,0.0,66,0.00,,,0.00,VWS V14.01,2013-02-16 04:03:00,
2013-02-15 20:08:00,43.7,33.5,30.24,NW,315,0.0,0.0,67,0.00,,,0.00,VWS V14.01,2013-02-16 04:08:00,
2013-02-15 20:13:00,43.3,33.1,30.24,NW,315,0.0,0.0,67,0.00,,,0.00,VWS V14.01,2013-02-16 04:13:00,
2013-02-15 20:18:00,43.0,33.2,30.27,NW,315,0.0,0.0,68,0.00,,,0.00,VWS V14.01,2013-02-16 04:18:00,
2013-02-15 20:23:00,43.0,33.2,30.27,NW,315,0.0,0.0,68,0.00,,,0.00,VWS V14.01,2013-02-16 04:23:00,
2013-02-15 20:28:00,42.6,33.2,30.27,NW,315,0.0,0.0,69,0.00,,,0.00,VWS V14.01,2013-02-16 04:28:00,
2013-02-15 20:33:00,42.4,33.4,30.27,NW,315,0.0,0.0,70,0.00,,,0.00,VWS V14.01,2013-02-16 04:33:00,
2013-02-15 20:38:00,42.3,33.2,30.27,North,0,0.0,0.0,70,0.00,,,0.00,VWS V14.01,2013-02-16 04:38:00,
2013-02-15 20:43:00,42.1,33.0,30.27,North,0,0.0,0.0,70,0.00,,,0.00,VWS V14.01,2013-02-16 04:43:00,
2013-02-15 20:48:00,41.9,33.2,30.27,North,0,0.0,0.0,71,0.00,,,0.00,VWS V14.01,2013-02-16 04:48:00,
2013-02-15 20:53:00,41.7,33.0,30.27,North,0,0.0,0.0,71,0.00,,,0.00,VWS V14.01,2013-02-16 04:53:00,
2013-02-15 20:58:00,41.5,33.2,30.27,NW,315,0.0,0.0,72,0.00,,,0.00,VWS V14.01,2013-02-16 04:58:00,
2013-02-15 21:00:00,41.5,33.2,30.27,NW,315,0.0,0.0,72,0.00,,,0.00,VWS V14.01,2013-02-16 05:00:00,
2013-02-15 21:05:00,41.5,33.2,30.27,NW,315,0.0,0.0,72,0.00,,,0.00,VWS V14.01,2013-02-16 05:05:00,
2013-02-15 21:10:00,41.4,33.4,30.27,NW,315,0.0,0.0,73,0.00,,,0.00,VWS V14.01,2013-02-16 05:10:00,
2013-02-15 21:15:00,41.2,33.2,30.27,NW,315,0.0,0.0,73,0.00,,,0.00,VWS V14.01,2013-02-16 05:15:00,
2013-02-15 21:20:00,41.2,33.2,30.27,West,270,0.0,0.0,73,0.00,,,0.00,VWS V14.01,2013-02-16 05:20:00,
2013-02-15 21:23:00,41.2,33.5,30.27,NW,315,0.0,0.0,74,0.00,,,0.00,VWS V14.01,2013-02-16 05:23:00,
2013-02-15 21:28:00,41.0,33.4,30.27,West,270,0.0,0.0,74,0.00,,,0.00,VWS V14.01,2013-02-16 05:28:00,
2013-02-15 21:33:00,41.0,33.4,30.27,West,270,0.0,0.0,74,0.00,,,0.00,VWS V14.01,2013-02-16 05:33:00,
2013-02-15 21:38:00,41.0,33.4,30.27,South,180,0.0,0.0,74,0.00,,,0.00,VWS V14.01,2013-02-16 05:38:00,
2013-02-15 21:43:00,40.6,33.3,30.27,NW,315,0.0,0.0,75,0.00,,,0.00,VWS V14.01,2013-02-16 05:43:00,
2013-02-15 21:48:00,40.6,33.3,30.27,NW,315,0.0,0.0,75,0.00,,,0.00,VWS V14.01,2013-02-16 05:48:00,
2013-02-15 21:53:00,40.5,33.2,30.27,SE,135,0.0,0.0,75,0.00,,,0.00,VWS V14.01,2013-02-16 05:53:00,
2013-02-15 21:58:00,40.5,33.2,30.27,South,180,0.0,0.0,75,0.00,,,0.00,VWS V14.01,2013-02-16 05:58:00,
2013-02-15 22:03:00,40.5,33.2,30.27,SE,135,3.5,3.5,75,0.00,,,0.00,VWS V14.01,2013-02-16 06:03:00,
2013-02-15 22:08:00,40.5,33.5,30.27,SW,225,0.0,0.0,76,0.00,,,0.00,VWS V14.01,2013-02-16 06:08:00,
2013-02-15 22:13:00,40.5,33.5,30.27,SW,225,3.2,3.2,76,0.00,,,0.00,VWS V14.01,2013-02-16 06:13:00,
2013-02-15 22:18:00,40.5,33.5,30.27,South,180,0.0,0.0,76,0.00,,,0.00,VWS V14.01,2013-02-16 06:18:00,
2013-02-15 22:23:00,40.6,34.0,30.27,South,180,0.0,0.0,77,0.00,,,0.00,VWS V14.01,2013-02-16 06:23:00,
2013-02-15 22:28:00,40.5,33.8,30.27,SE,135,0.0,0.0,77,0.00,,,0.00,VWS V14.01,2013-02-16 06:28:00,
2013-02-15 22:33:00,40.3,33.3,30.27,SE,135,0.0,0.0,76,0.00,,,0.00,VWS V14.01,2013-02-16 06:33:00,
2013-02-15 22:38:00,40.3,33.7,30.27,SW,225,0.0,0.0,77,0.00,,,0.00,VWS V14.01,2013-02-16 06:38:00,
2013-02-15 22:43:00,40.1,33.5,30.27,South,180,0.0,0.0,77,0.00,,,0.00,VWS V14.01,2013-02-16 06:43:00,
2013-02-15 22:48:00,39.9,33.3,30.27,South,180,0.0,0.0,77,0.00,,,0.00,VWS V14.01,2013-02-16 06:48:00,
2013-02-15 22:53:00,39.9,33.3,30.27,South,180,0.0,0.0,77,0.00,,,0.00,VWS V14.01,2013-02-16 06:53:00,
2013-02-15 22:58:00,39.7,33.1,30.27,South,180,0.0,0.0,77,0.00,,,0.00,VWS V14.01,2013-02-16 06:58:00,
2013-02-15 23:03:00,39.7,33.1,30.27,South,180,0.0,0.0,77,0.00,,,0.00,VWS V14.01,2013-02-16 07:03:00,
2013-02-15 23:07:00,39.7,33.5,30.27,South,180,0.0,0.0,78,0.00,,,0.00,VWS V14.01,2013-02-16 07:07:00,
2013-02-15 23:12:00,39.6,33.3,30.27,SE,135,0.0,0.0,78,0.00,,,0.00,VWS V14.01,2013-02-16 07:12:00,
2013-02-15 23:17:00,39.6,33.3,30.27,SW,225,0.0,0.0,78,0.00,,,0.00,VWS V14.01,2013-02-16 07:17:00,
2013-02-15 23:22:00,39.6,33.3,30.27,SW,225,0.0,0.0,78,0.00,,,0.00,VWS V14.01,2013-02-16 07:22:00,
2013-02-15 23:27:00,39.4,33.1,30.27,SW,225,0.0,0.0,78,0.00,,,0.00,VWS V14.01,2013-02-16 07:27:00,
2013-02-15 23:32:00,39.4,33.1,30.27,SW,225,0.0,0.0,78,0.00,,,0.00,VWS V14.01,2013-02-16 07:32:00,
2013-02-15 23:37:00,39.2,32.9,30.27,SE,135,0.0,0.0,78,0.00,,,0.00,VWS V14.01,2013-02-16 07:37:00,
2013-02-15 23:42:00,39.2,32.9,30.27,SE,135,0.0,0.0,78,0.00,,,0.00,VWS V14.01,2013-02-16 07:42:00,
2013-02-15 23:47:00,39.0,33.1,30.30,SE,135,0.0,0.0,79,0.00,,,0.00,VWS V14.01,2013-02-16 07:47:00,
2013-02-15 23:52:00,38.8,32.9,30.30,SE,135,0.0,0.0,79,0.00,,,0.00,VWS V14.01,2013-02-16 07:52:00,
2013-02-15 23:57:00,38.8,32.9,30.30,SW,225,0.0,0.0,79,0.00,,,0.00,VWS V14.01,2013-02-16 07:57:00,